Flag for Honduras Weather past 2 weeks in Tegucigalpa, Honduras

Now
N/A

Partly cloudy.


Feels Like: N/A
Forecast: 66 / 85 °F
Wind: 5 mph from East

Location: Tegucigalpa Airport

Current Time: May 25, 2015 at 12:38:24 AM

Latest Report: May 25, 2015 at 12:00 AM


Visibility: N/A

Pressure: 30.12 "Hg

Humidity: N/A

Dew point: N/A

Location of TegucigalpaLocation

Historic Weather in Tegucigalpa — Graph

°F

Tegucigalpa temperature yesterday

Maximum temperature yesterday: 84 °F (at 12:00 PM)
Minimum temperature yesterday: 68 °F (at 2:00 AM)
Average temperature yesterday: 75 °F

Past Weeks' High & Low Weather Summary

 TemperatureHumidityPressure
High90 °F (May 20, 1:00 PM)100% (May 18, 7:00 AM)30.18 "Hg (May 18, 7:00 AM)
Low61 °F (May 16, 5:00 AM)29% (May 20, 1:00 PM)29.80 "Hg (May 12, 8:00 PM)
Average75 °F65%30.09 "Hg
* Reported May 9 11:00 PM — May 24 11:00 PM, Tegucigalpa, Weather by CustomWeather, © 2015

Note: Actual official high and low records may vary slightly from our data, if they occured in-between our weather recording intervals... More about our weather records

Advertising

Tegucigalpa weather history for previous 24 hours

 ConditionsComfort  
Time TempWeatherWind HumidityBarometerVisibility
11:00 PM
Sun, May 24
72 °FPartly cloudy.7 mph69%30.15 "HgN/A
10:00 PM73 °FPartly cloudy.5 mph65%30.12 "HgN/A
9:00 PM73 °FPassing clouds.7 mph65%30.12 "HgN/A
8:00 PM75 °FPassing clouds.5 mph61%30.09 "HgN/A
7:00 PM75 °FPassing clouds.5 mph57%30.09 "HgN/A
6:00 PM75 °FPartly sunny.7 mph54%30.07 "HgN/A
5:00 PM77 °FPartly sunny.7 mph54%30.07 "HgN/A
4:00 PM81 °FPartly sunny.12 mph48%30.07 "HgN/A
3:00 PM82 °FBroken clouds.9 mph45%30.07 "HgN/A
2:00 PM82 °FPartly sunny.9 mph48%30.07 "HgN/A
1:00 PM81 °FPartly sunny.14 mph58%30.09 "HgN/A
12:00 PM84 °FPartly sunny.12 mph48%30.09 "HgN/A
11:00 AM82 °FBroken clouds.12 mph55%30.12 "HgN/A
10:00 AM79 °FBroken clouds.7 mph65%30.12 "HgN/A
9:00 AM75 °FPartly sunny.9 mph69%30.15 "HgN/A
8:00 AM73 °FBroken clouds.9 mph74%30.15 "HgN/A
7:00 AM70 °FScattered showers. Partly sunny.9 mph83%30.12 "Hg5 mi
6:00 AM68 °FScattered showers. Partly sunny.2 mph83%30.12 "Hg4 mi
5:00 AM68 °FPassing clouds.2 mph83%30.09 "HgN/A
4:00 AM68 °FPassing clouds.No wind83%30.09 "HgN/A
3:00 AM68 °FPassing clouds.3 mph83%30.09 "HgN/A
2:00 AM68 °FPassing clouds.6 mph83%30.12 "HgN/A
1:00 AM70 °FPassing clouds.7 mph83%30.12 "HgN/A
12:00 AM70 °FPartly cloudy.6 mph83%30.15 "HgN/A
Weather by CustomWeather, © 2015

See weather overviewHow to use our weather pages